This demonstration page uses our WeatherBlox Daily Observations layout. Learn more.

Left ArrowRight Arrow

Hourly Observations for April 18, 2018

Temp ( °F °C ) Dew Point ( °F °C ) Humidity (%) Winds ( mph kmh ) Pressure ( in mb ) Visibility ( mi km ) Precip ( " mm )
12:51 am 00:51 Clear 52 11.1 7 -13.9 16 16 NNW 6 9 29.95 1014 10 16 0.00 0.00
1:51 am 01:51 Clear 50 10 6 -14.4 17 17 NNW 8 13 29.94 1014 10 16 0.00 0.00
2:51 am 02:51 Clear 45 7.2 6 -14.4 20 20 Calm 29.95 1014 10 16 0.00 0.00
3:51 am 03:51 Clear 43 6.1 7 -13.9 22 22 ESE 3 6 29.97 1015 10 16 0.00 0.00
4:51 am 04:51 Clear 42 5.6 7 -13.9 23 23 E 5 7 30.00 1016 10 16 0.00 0.00
5:51 am 05:51 Sunny 40 4.4 6 -14.4 24 24 ESE 3 6 30.02 1017 10 16 0.00 0.00
6:51 am 06:51 Sunny 48 8.9 7 -13.9 19 19 Calm 30.04 1017 10 16 0.00 0.00
7:51 am 07:51 Sunny 55 12.8 8 -13.3 15 15 Calm 30.04 1017 10 16 0.00 0.00
8:51 am 08:51 Sunny 63 17.2 9 -12.8 12 12 ESE 7 11 30.03 1017 8 13 0.00 0.00
9:51 am 09:51 Sunny 67 19.4 9 -12.8 10 10 S 10 17 30.02 1017 10 16 0.00 0.00
10:51 am 10:51 Sunny 70 21.1 11 -11.7 10 10 ESE 8 13 30.00 1016 10 16 0.00 0.00
11:51 am 11:51 Sunny 75 23.9 11 -11.7 8 8 VRB 6 9 29.98 1015 10 16 0.00 0.00
12:51 pm 12:51 Sunny 77 25 9 -12.8 7 7 ESE 6 9 29.95 1014 10 16 0.00 0.00
1:51 pm 13:51 Sunny 81 27.2 7 -13.9 6 6 VRB 3 6 29.92 1013 10 16 0.00 0.00
2:51 pm 14:51 Sunny 84 28.9 5 -15 5 5 NNW 8 13 29.88 1012 10 16 0.00 0.00
3:51 pm 15:51 Sunny 84 28.9 2 -16.7 4 4 SW 7 11 29.85 1011 10 16 0.00 0.00
4:51 pm 16:51 Sunny 86 30 1 -17.2 4 4 NW 8 13 29.83 1010 10 16 0.00 0.00
5:51 pm 17:51 Sunny 84 28.9 0 -17.8 4 4 VRB 7 11 29.83 1010 10 16 0.00 0.00
6:51 pm 18:51 Clear 78 25.6 -5 -20.6 4 4 WNW 8 13 29.83 1010 10 16 0.00 0.00
7:51 pm 19:51 Clear 70 21.1 2 -16.7 7 7 NW 9 15 29.84 1011 10 16 0.00 0.00
8:51 pm 20:51 Clear 65 18.3 8 -13.3 10 10 NW 5 7 29.87 1011 10 16 0.00 0.00
9:51 pm 21:51 Clear 68 20 0 -17.8 6 6 WNW 10 17 29.87 1011 10 16 0.00 0.00
10:51 pm 22:51 Clear 65 18.3 1 -17.2 8 8 NW 5 7 29.87 1012 10 16 0.00 0.00
11:51 pm 23:51 Clear 61 16.1 3 -16.1 10 10 W 7 11 29.87 1012 10 16 0.00 0.00

Powered by AerisWeather